EDT,Max TemperatureF,Mean TemperatureF,Min TemperatureF,Max Dew PointF,MeanDew PointF,Min DewpointF,Max Humidity, Mean Humidity, Min Humidity, Max Sea Level PressureIn, Mean Sea Level PressureIn, Min Sea Level PressureIn, Max VisibilityMiles, Mean VisibilityMiles, Min VisibilityMiles, Max Wind SpeedMPH, Mean Wind SpeedMPH, Max Gust SpeedMPH,PrecipitationIn, CloudCover, Events, WindDirDegrees
2013-10-1,80,68,56,60,57,52,100,70,39,30.14,30.09,30.04,10,10,7,10,2,22,0.00,0,,233
2013-10-2,83,71,59,64,60,57,93,68,43,30.15,30.10,30.06,10,10,7,9,2,13,0.00,0,,54
2013-10-3,82,71,59,64,61,58,100,74,48,30.13,30.09,30.05,10,9,2,12,3,17,0.00,1,,196
2013-10-4,85,72,59,66,62,59,100,74,48,30.14,30.10,30.07,10,8,4,9,2,12,0.00,1,,71
2013-10-5,85,73,60,66,63,60,100,72,44,30.12,30.08,30.02,10,8,4,8,2,13,0.00,0,,146
2013-10-6,83,72,61,66,63,61,93,72,51,30.04,29.97,29.86,10,7,1,13,4,18,0.00,2,,173
2013-10-7,77,68,59,68,64,52,100,79,57,29.98,29.85,29.79,10,7,1,15,6,20,1.57,7,Rain,210
2013-10-8,71,65,58,52,49,44,77,62,47,30.18,30.09,29.97,10,10,9,25,12,33,0.00,6,,40
2013-10-9,73,63,53,49,45,39,72,52,31,30.21,30.15,30.10,10,10,7,18,8,25,0.00,0,,29
2013-10-10,79,63,46,54,50,45,100,69,37,30.11,30.05,29.98,10,10,4,10,3,15,0.00,0,,349
2013-10-11,81,69,57,56,53,51,80,58,36,30.00,29.96,29.91,10,10,10,9,3,18,0.00,1,,296
2013-10-12,78,67,55,61,57,54,93,70,47,30.07,30.01,29.96,10,10,9,8,2,12,0.00,5,,43
2013-10-13,76,70,64,63,61,61,93,79,64,30.21,30.15,30.08,10,10,10,10,5,14,0.00,7,,41
2013-10-14,70,67,63,61,60,59,93,82,70,30.23,30.18,30.13,10,10,7,15,8,18,T,8,Rain,40
2013-10-15,71,64,57,59,56,55,93,77,61,30.20,30.12,30.05,10,10,6,12,5,14,0.00,5,,34
2013-10-16,74,64,53,58,55,52,100,79,57,30.06,30.01,29.95,10,10,7,9,3,14,0.00,1,,233
2013-10-17,68,65,61,66,63,58,100,88,76,29.95,29.91,29.86,10,5,0,14,5,16,0.24,7,Fog-Rain,222
2013-10-18,72,63,53,64,57,52,100,81,61,30.01,29.94,29.88,10,7,0,10,3,13,0.00,3,Fog,61
2013-10-19,64,58,51,61,57,51,100,84,67,29.97,29.91,29.86,10,7,0,14,4,20,0.02,6,Fog-Rain,222
2013-10-20,67,56,44,52,46,42,100,72,44,30.08,30.01,29.93,10,10,4,9,2,14,0.00,0,,86
2013-10-21,69,57,45,54,49,43,93,74,55,30.15,30.07,30.00,10,10,7,14,4,17,0.00,2,,327
2013-10-22,69,62,54,57,54,46,93,73,52,30.01,29.90,29.80,10,9,5,12,6,15,T,6,Rain,227
2013-10-23,67,54,40,53,43,30,96,61,26,30.04,29.82,29.73,10,7,0,18,8,28,0.00,0,Fog,260
2013-10-24,63,49,35,43,36,30,92,64,36,30.17,30.11,30.05,10,10,9,18,4,22,0.00,2,,252
2013-10-25,54,45,35,38,30,25,92,62,32,30.37,30.29,30.16,10,10,9,14,4,18,0.00,0,,33
2013-10-26,57,43,29,36,31,28,92,66,39,30.35,30.24,30.09,10,10,7,16,6,22,0.00,0,,246
2013-10-27,70,55,40,52,44,35,92,69,45,30.12,30.08,30.05,10,10,10,12,4,20,0.00,0,,222
2013-10-28,68,60,51,56,53,51,100,82,63,30.26,30.20,30.10,10,9,2,14,3,17,0.04,6,Rain,226
2013-10-29,74,61,48,55,51,47,100,74,47,30.32,30.26,30.23,10,6,0,8,2,14,0.00,1,Fog,252
2013-10-30,78,66,54,57,55,53,100,73,45,30.28,30.21,30.15,10,10,6,16,6,21,0.00,1,,215
2013-10-31,73,64,55,63,57,54,93,78,63,30.16,30.05,29.88,10,9,7,16,7,21,0.00,2,,199